Lake Seminole Weather Center

Moon Phase Calendar



Lake Seminole Water Level
Online Cameras

 


      

Current Conditions in Chattahoochee
5/24/2022 5:50:27 PM

76°F
Feels Like 76
Clouds
Humidity
54%
Pressure
29.97"
Wind
7.9 mph (SE)
Dew Point
58°F
UV Index
2/10 (Low)
Visibility
6 mi

Hourly Forecast

Date & Time Tue, May 24
5:00 PM
Tue, May 24
6:00 PM
Tue, May 24
7:00 PM
Tue, May 24
8:00 PM
Tue, May 24
9:00 PM
Tue, May 24
10:00 PM
Tue, May 24
11:00 PM
Wed, May 25
12:00 AM
Wed, May 25
1:00 AM
Wed, May 25
2:00 AM
Wed, May 25
3:00 AM
Wed, May 25
4:00 AM
Wed, May 25
5:00 AM
Wed, May 25
6:00 AM
Wed, May 25
7:00 AM
Wed, May 25
8:00 AM
Wed, May 25
9:00 AM
Wed, May 25
10:00 AM
Wed, May 25
11:00 AM
Wed, May 25
12:00 PM
Wed, May 25
1:00 PM
Wed, May 25
2:00 PM
Wed, May 25
3:00 PM
Wed, May 25
4:00 PM
Wed, May 25
5:00 PM
Wed, May 25
6:00 PM
Wed, May 25
7:00 PM
Wed, May 25
8:00 PM
Wed, May 25
9:00 PM
Wed, May 25
10:00 PM
Wed, May 25
11:00 PM
Thu, May 26
12:00 AM
Thu, May 26
1:00 AM
Thu, May 26
2:00 AM
Thu, May 26
3:00 AM
Thu, May 26
4:00 AM
Thu, May 26
5:00 AM
Thu, May 26
6:00 AM
Thu, May 26
7:00 AM
Thu, May 26
8:00 AM
Thu, May 26
9:00 AM
Thu, May 26
10:00 AM
Thu, May 26
11:00 AM
Thu, May 26
12:00 PM
Thu, May 26
1:00 PM
Thu, May 26
2:00 PM
Thu, May 26
3:00 PM
Thu, May 26
4:00 PM
Condition
Clouds

Clouds

Clouds

Clouds

Clouds

Clouds

Clouds

Clouds

Clouds

Clouds

Clouds

Clouds

Clouds

Clouds

Clouds

Clouds

Clouds

Clouds

Clouds

Rain

Rain

Rain

Rain

Rain

Rain

Clouds

Clouds

Clouds

Clouds

Clouds

Clouds

Clouds

Clouds

Clouds

Clouds

Clouds

Clouds

Clouds

Clouds

Rain

Clouds

Rain

Rain

Clouds

Rain

Rain

Rain

Rain
Temperature 77°F76°F78°F78°F77°F76°F74°F73°F71°F70°F70°F71°F71°F71°F71°F73°F76°F77°F81°F83°F80°F75°F75°F79°F77°F76°F75°F74°F73°F72°F72°F71°F71°F72°F71°F70°F71°F72°F71°F73°F77°F80°F79°F80°F82°F84°F81°F80°F
Feels Like 77°F76°F78°F78°F77°F76°F75°F74°F72°F71°F71°F71°F71°F71°F71°F74°F77°F78°F84°F87°F84°F76°F77°F80°F79°F78°F76°F76°F74°F73°F73°F72°F72°F72°F71°F70°F72°F73°F72°F74°F78°F80°F79°F84°F85°F87°F84°F83°F
Cloudiness 90%88%86%86%95%98%100%100%100%98%99%100%100%100%100%100%100%100%100%100%100%100%100%100%100%100%100%100%100%100%100%100%100%100%100%100%100%100%85%75%35%31%54%65%72%77%100%100%
Visibility 6 mi6 mi6 mi6 mi6 mi6 mi6 mi6 mi6 mi6 mi6 mi6 mi6 mi6 mi6 mi6 mi6 mi6 mi6 mi2 mi5 mi3 mi3 mi6 mi6 mi6 mi6 mi6 mi6 mi6 mi6 mi6 mi6 mi6 mi6 mi6 mi6 mi6 mi6 mi6 mi6 mi6 mi6 mi6 mi6 mi6 mi6 mi6 mi
Precipitation 50%55%45%49%30%37%41%45%45%37%0%0%0%0%0%3%19%23%21%75%97%100%97%97%94%70%87%87%5%1%0%0%0%0%0%0%0%0%0%35%55%67%94%79%100%100%83%100%
Humidity 56%54%55%60%67%74%79%81%83%86%86%84%84%84%84%80%74%72%64%64%75%85%85%78%81%84%85%87%88%87%86%85%80%71%75%77%76%77%83%85%79%70%75%70%64%59%63%69%
Dew Point 60°F58°F60°F63°F65°F67°F68°F67°F66°F66°F66°F66°F66°F66°F66°F67°F67°F68°F68°F70°F71°F70°F71°F71°F71°F71°F71°F70°F69°F68°F67°F66°F65°F62°F63°F63°F64°F65°F66°F68°F70°F69°F70°F70°F69°F68°F68°F69°F
Pressure 29.97"29.97"29.97"29.97"29.97"30"30.03"30.03"30.03"30.03"30"30"29.97"30"30"30.03"30.06"30.06"30.06"30.06"30.06"30.06"30.06"30.03"30.03"30.03"30"30.03"30"30.03"30.03"30"30"30"30"29.97"29.97"29.97"30"30.03"30.03"30.03"30.03"30"30"29.97"29.94"29.94"
Wind Speed 10 mph7.9 mph8.1 mph6 mph5.5 mph4.2 mph4 mph4.7 mph4.8 mph5.4 mph5.2 mph4.9 mph5.5 mph5.7 mph5.2 mph5.4 mph6.5 mph5.7 mph8 mph9.6 mph9.8 mph8.7 mph9.3 mph8.4 mph6.9 mph5.8 mph7 mph4.4 mph4.3 mph5 mph5.2 mph5.3 mph7.9 mph7 mph6.5 mph6.4 mph7.5 mph8 mph7.3 mph8.1 mph12.2 mph14.7 mph13.7 mph14.2 mph16.9 mph17 mph16.2 mph15.4 mph
Wind
Direction
117°
ESE
130°
SE
122°
ESE
122°
ESE
125°
SE
138°
SE
141°
SE
135°
SE
137°
SE
126°
SE
131°
SE
137°
SE
131°
SE
131°
SE
130°
SE
128°
SE
147°
SSE
137°
SE
137°
SE
142°
SE
160°
SSE
178°
S
180°
S
194°
SSW
227°
SW
230°
SW
215°
SW
213°
SSW
198°
SSW
161°
SSE
140°
SE
75°
ENE
95°
E
140°
SE
164°
SSE
142°
SE
143°
SE
145°
SE
144°
SE
155°
SSE
166°
SSE
173°
S
169°
S
171°
S
180°
S
175°
S
180°
S
180°
S

Daily Forecast

Date High Low Precip. Humidity
Today
May 24

Clouds
87 °F
69 °F
55%
53%
Wednesday
May 25

Rain
83 °F
70 °F
100%
75%
Thursday
May 26

Rain
84 °F
70 °F
100%
59%
Friday
May 27

Rain
81 °F
66 °F
100%
41%
Saturday
May 28

Clear
82 °F
62 °F
0%
42%
Sunday
May 29

Clear
91 °F
66 °F
0%
29%
Monday
May 30

Rain
92 °F
67 °F
39%
38%
Tuesday
May 31

Rain
88 °F
69 °F
93%
42%
Wednesday
Jun 1

Rain
90 °F
64 °F
87%
38%
Thursday
Jun 2

Rain
80 °F
67 °F
100%
64%
Friday
Jun 3

Clear
89 °F
67 °F
27%
38%
Saturday
Jun 4

Clear
92 °F
71 °F
0%
41%
Sunday
Jun 5

Clear
93 °F
68 °F
0%
30%
Monday
Jun 6

Clear
97 °F
71 °F
0%
31%
Tuesday
Jun 7

Clear
98 °F
71 °F
0%
34%
Wednesday
Jun 8

Clear
101 °F
71 °F
0%
31%

Temperature 8-14 Day Outlook



Precipitation 8-14 Day Outlook




Quick Links
Lake Seminole News
Lake Seminole Photos
Lake Seminole Videos




About Us
Contact Us
Site Map
Search Site
Advertise With Us
   
Seminole.USLakes.info
THE LAKE SEMINOLE WEBSITE

Copyright 2022, Lakes Online
Privacy    |    Legal